www.pogodaiklimat.ru

Погода и климат >> Архив погоды >> Россия >> Волгоградская область >> Елань


ПОГОДА в Елани

  • Прогноз погоды в Елани
  • Монитор погоды в Елани

АРХИВ ПОГОДЫ в Елани

Время (UTC), дата Ветер
(напр.,м/с)
 
Видим.   Явления Облачность Т
(С)
Тd
(С)
f
(%)
Тe
(С)
Тes
(С)
Комфортность P
(гПа)
Po
(гПа)
Тmin
(С)
Tmax
(С)
R
(мм)
R24
(мм)
S
(см)
12 11.08 З 8-12
{13}
20 км {ливн. осадки} 10/8 300 м
[Cb cap Ac cast]
+16.2 +10.4 68 +15 +15 1011.3 995.6
15 11.08 СЗ 7-12
{13}
20 км 10/4 600 м
[Cb cap Ac As Ci fib]
+16.8 +9.6 62 +16 +16 1011.9 996.2 +17.5
18 11.08 СЗ 3
{12}
20 км 4/0
[Ac As]
+13.1 +9.8 80 +12 +12 1013.5 997.5
21 11.08 СЗ 2 20 км 3/0
[Ci fib]
+11.8 +9.1 84 +11 +11 1014.1 998.0
00 12.08 З 3 20 км ясно +9.9 +8.9 93 +8 +8 1014.4 998.3
03 12.08 СЗ 3 20 км 3/0
[Ci fib]
+11.7 +9.5 86 +10 +10 1015.3 999.3 +9.2
06 12.08 СЗ 4 20 км 4/0
[Ci fib]
+15.9 +9.5 66 +15 +20 1015.9 1000.1
09 12.08 СЗ 6-10
{10}
20 км 8/5 600 м
[Cu hum Ci fib]
+18.9 +7.7 48 +19 +21 1016.2 1000.5
12 12.08 СЗ 6-10
{11}
20 км 5/3 1000 м
[Cu hum Ci fib]
+20.5 +7.4 43 +21 +24 комфорт 1015.6 1000.0
15 12.08 СЗ 5
{11}
20 км ясно +20.1 +6.9 42 +21 +21 комфорт 1015.8 1000.2 +20.8
18 12.08 СЗ 2 20 км 3/0
[Ac trans]
+15.4 +7.7 60 +15 +15 1017.0 1001.1
21 12.08 СЗ 2 20 км ясно +12.8 +6.6 66 +12 +12 1017.8 1001.8
00 13.08 СЗ 3 20 км ясно +10.5 +6.0 74 +9 +9 1018.7 1002.5
03 13.08 З 1 20 км 3/0
[Ci fib]
+9.3 +6.8 84 +9 +9 1019.5 1003.2 +7.1
06 13.08 СЗ 3 20 км 4/0
[Ci fib]
+17.4 +7.0 50 +17 +24 1019.3 1003.5
09 13.08 СЗ 4 20 км 6/0
[Ac trans Ci fib]
+21.0 +8.9 46 +23 +30 комфорт 1018.1 1002.6
12 13.08 СЗ 4 20 км 6/6 600 м
[Cu med, cong]
+23.2 +10.3 44 +25 +28 комфорт 1017.4 1001.9
15 13.08 С 1 20 км 8/0
[Ci fib]
+21.4 +11.7 54 +23 +24 комфорт 1016.9 1001.4 +23.5
18 13.08 штиль 0 20 км 10/0
[Ac trans Ci fib]
+15.7 +12.2 80 +16 +16 1017.3 1001.5
21 13.08 ЮЗ 1 20 км 3/0
[Ci fib]
+13.9 +12.2 89 +14 +14 1017.4 1001.5
00 14.08 ЮЗ 1 20 км 4/0
[Ac trans]
+13.9 +11.3 84 +14 +14 1017.2 1001.2
03 14.08 ЮВ 2 20 км 3/0
[Ac trans]
+14.9 +12.1 83 +15 +15 1016.9 1001.0 +13.1
06 14.08 Ю 2 20 км 10/0
[Ac cast Ci fib]
+22.5 +14.2 59 +26 +29 жарко 1015.4 1000.0
09 14.08 ЮЗ 5 20 км 10/0
[Ac trans Ci fib]
+28.0 +16.2 49 +31 +36 душно 1013.5 998.4
12 14.08 ЮЗ 7-10
{10}
20 км 10/0
[Cc]
+30.5 +16.7 43 +34 +36 очень
душно
1012.5 997.5
15 14.08 ЮЗ 4
{10}
20 км 9/0
[Ac trans Cc]
+28.7 +18.3 53 +33 +34 очень
душно
1012.1 997.1 +30.7
18 14.08 З 2 20 км 6/0
[Ci fib]
+23.8 +18.1 70 +28 +28 душно 1013.2 997.9
21 14.08 З 1 20 км 8/0
[Ci fib]
+20.7 +17.5 82 +26 +26 душно 1013.7 998.2
00 15.08 штиль 0 20 км 3/0
[Ci fib]
+18.2 +17.4 95 +19 +19 1013.9 998.3
03 15.08 штиль 0 4000 м дымка ясно +17.8 +17.2 96 +18 +19 1014.6 998.9 +16.4
06 15.08 штиль 0 20 км ясно +27.4 +19.4 62 +33 +44 очень
душно
1014.3 999.2
09 15.08 В 1 20 км 1/1 1000 м
[Cu med, cong]
+31.2 +18.9 48 +36 +51 опасность
солнечного
удара
1013.9 998.9
12 15.08 ЮЗ 1 20 км 3/3 1000 м
[Cu med, cong]
+32.1 +16.9 40 +35 +42 очень
душно
1012.9 998.0
15 15.08 В 2 20 км 3/0
[Ci fib]
+31.2 +17.7 45 +35 +36 очень
душно
1012.0 997.1 +33.1
18 15.08 В 3 20 км 1/0
[Ac trans]
+26.2 +16.3 54 +30 +30 душно 1013.0 997.8
21 15.08 В 2 20 км 10/0
[Ci fib]
+21.2 +15.2 69 +24 +24 комфорт 1013.6 998.1
00 16.08 В 2 20 км 10/0
[Ci fib]
+19.2 +14.2 73 +21 +21 комфорт 1013.1 997.5
03 16.08 В 2 20 км 10/0
[Ac trans Cc]
+18.8 +13.1 69 +20 +21 1012.9 997.3 +18.2
06 16.08 ЮВ 2 20 км 8/0
[Ac trans Cc]
+25.4 +15.6 55 +29 +34 душно 1012.2 996.9
09 16.08 Ю 2 20 км 9/0
[Ac lent]
+29.4 +14.7 41 +32 +36 душно 1011.0 996.0
12 16.08 Ю 4 20 км 9/0
[Ac trans Cc]
+30.8 +12.2 32 +31 +35 жарко 1010.2 995.3
15 16.08 ЮВ 2 20 км 8/0
[Ac As Ci fib]
+27.6 +13.0 41 +29 +30 жарко 1009.9 994.8 +31.2
18 16.08 В 2 20 км 10/0
[Ac As]
+24.1 +12.1 47 +26 +26 жарко 1010.4 995.1
21 16.08 В 2 20 км 10/0
[Ac As]
+22.1 +12.4 54 +25 +25 комфорт 1009.9 994.5
00 17.08 ЮВ 2 20 км 9/0
[Ac cast Ci fib]
+22.7 +11.7 50 +25 +25 комфорт 1010.2 994.8
03 17.08 ЮВ 3 20 км 10/8 300 м
[Cb cap Ac As]
+21.7 +10.4 49 +23 +23 комфорт 1010.3 994.8 +20.9
06 17.08 ЮВ 3 20 км 10/6 600 м
[Cb cap Ac As Ci fib]
+22.7 +12.2 51 +25 +27 комфорт 1011.1 995.8
09 17.08 В 3 20 км 10/0
[Ac As Ci fib]
+25.4 +14.3 50 +28 +34 жарко 1010.8 995.6
12 17.08 В 3 20 км 10/8 300 м
[Cb cap Ac trans Ci fib]
+28.1 +11.3 35 +29 +30 жарко 1008.8 993.8
15 17.08 В 1 20 км {ливн. осадки} 10/8 300 м
[Cb cap Ac trans]
+24.1 +13.2 51 +26 +26 жарко 1008.7 993.4 +28.5
18 17.08 штиль 0 20 км {ливн. осадки} 9/9 300 м
[Cb cap]
+21.7 +13.5 60 +24 +24 комфорт 1008.9 993.5
21 17.08 В 1 20 км 3/0
[Ac trans]
+20.1 +14.9 72 +24 +24 комфорт 1009.4 994.0
00 18.08 В 1 20 км ясно +17.3 +13.1 76 +18 +18 1010.3 994.6
03 18.08 ЮВ 1 20 км 8/0
[Ci fib]
+16.9 +12.8 77 +18 +18 1011.0 995.3 +16.0
06 18.08 В 1 20 км 10/0
[Ci fib]
+24.4 +15.3 57 +27 +35 жарко 1011.5 996.2

 

Местоположение метеостанции Елань (Волгоградская область, Россия): широта 50.95 долгота 43.73 высота над уровнем моря 133 м.

В архиве по умолчанию представлена погода в Елани за последнюю неделю. Архивные данные за месяц целиком и за предыдущие месяцы, начиная с января 2011 года, Вы можете получить, выбрав интересующий диапазон дат из раскрывающегося списка и нажав кнопку "Ввод!".


*Определитесь, кто Вы:
робот инопланетянин человек

Внимание! Время в таблицах - всемирное. Для получения местного времени необходимо прибавить поправку, которая равна 3 ч.

Смотрите также архив погоды в соседних городах и на ближайших метеорологических станциях:

Погода в Рудне (Волгоградская область, Россия) (60 км)
Погода в Даниловке (Волгоградская область, Россия) (70 км)
Погода в Балашове (Саратовская область, Россия) (78 км)
Погода в Калининске (Саратовская область, Россия) (80 км)
Погода в Новоаннинском (Волгоградская область, Россия) (87 км)
Погода в Михайловке (Волгоградская область, Россия) (102 км)
Погода в Росташах (Саратовская область, Россия) (103 км)
Погода в Сплавнухе (Саратовская область, Россия) (116 км)
Погода в Урюпинске (Волгоградская область, Россия) (123 км)
Погода в Борисоглебске (Воронежская область, Россия) (124 км)

Пояснения к столбцам:

Ветер - указаны скорость ветра в м/с - средняя за 10 мин, порывы в срок и между сроками (в фигурных скобках) и направление, откуда дует ветер: С - северный, СВ - северо-восточный, В - восточный, ЮВ - юго-восточный, Ю - южный, ЮЗ - юго-западный, З - западный, СЗ - северо-западный.
Видимость - горизонтальная дальность видимости в метрах или километрах. При видимости от 1 до 10 км при отсутствии осадков обычно наблюдается дымка, при ухудшении видимости до 1 км и менее - туман. В сухую погоду видимость может ухудшаться дымом, пылью или мглою.
Явления - указаны атмосферные явления, наблюдавшиеся в срок или в последний час перед сроком; фигурными скобками обозначены явления, наблюдавшиеся между сроками (за 1-3 часа до срока); квадратными скобками обозначены град или гололедные отложения с указанием их диаметра в мм.
Облачность - указаны через наклонную черту общая и нижняя облачность в баллах и высота нижней границы облаков в метрах; квадратными скобками обозначены формы облаков: Ci - перистые, Cs - перисто-слоистые, Cc - перисто-кучевые, Ac - высококучевые, As - высокослоистые, Sc - слоисто-кучевые, Ns - слоисто-дождевые, Cu - кучевые, Cb - кучево-дождевые. Подробнее классификацию облаков см. в Атласе облаков (PDF).
T - Температура воздуха - температура, измеренная на высоте 2 м над землей.
Td - Температура точки росы - температура, при понижении до которой содержащийся в воздухе водяной пар достигнет насыщения.
f - Относительная влажность воздуха - влажноcть воздуха, измеренная на высоте 2 м над землей.
Te - Эффективная температура - температура, которую ощущает одетый по сезону человек в тени. Характеристика душности погоды. При расчете учитывается влияние влажности воздуха и скорости ветра на теплоощущения человека.
Tes - Эффективная температура на солнце - температура, которую ощущает человек, с поправкой на солнечный нагрев. Характеристика знойности погоды. Зависит от высоты солнца над горизонтом, облачности и скорости ветра. Ночью, в пасмурную погоду, а также при ветре 12 м/с и более поправка равна нулю.
P - Атмосферное давление - приведенное к уровню моря атмосферное давление.
Po - Атмосферное давление - измеренное на уровне метеостанции атмосферное давление.
Tmin - Минимальная температура - минимум температуры воздуха на высоте 2 м над землей.
Tmax - Максимальная температура - максимум температуры воздуха на высоте 2 м над землей.
R - Количество осадков - Количество выпавших осадков за период времени, мм. При наведении курсора мыши на число - период времени, за который выпало указанное количество осадков.
R24 - Количество осадков - Количество выпавших осадков за 24 часа, мм.
S - Снежный покров - Высота снежного покрова, см. При наведении курсора мыши на число - состояние снежного покрова и степень покрытия местности в баллах.